Regional Weather Roundup
Issued by NWS

Home | Current Version | Previous Version | Text Only | Print | Product List | Glossary On
Versions: 1 2 3 4 5 6 7 8 9 10 11 12 13 14 15 16 17 18 19 20 21 22 23 24 25 26 27 28 29 30 31 32 33 34 35 36 37 38 39 40 41 42 43 44 45 46 47 48 49 50
000
ASUS43 KTOP 270359
RWRKS

WEATHER ROUNDUP FOR KANSAS
NATIONAL WEATHER SERVICE GOODLAND KS
1100 PM CDT THU APR 26 2018

NOTE:  "FAIR" INDICATES FEW OR NO CLOUDS BELOW 12,000 FEET WITH NO
SIGNIFICANT WEATHER AND/OR OBSTRUCTIONS TO VISIBILITY.

KSZ001>006-013>018-027>032-041>047-270500-
NORTHWEST KANSAS

CITY           SKY/WX    TMP DP  RH WIND       PRES   REMARKS
GOODLAND       CLEAR     39  30  70 NW6       30.21R
HAYS           CLEAR     45  30  55 CALM      30.15S
HILL CITY      CLEAR     41  32  70 N7        30.17R
RUSSELL        CLEAR     48  32  53 N8        30.13R
$$

KSZ061>065-074>080-084>089-270500-
SOUTHWEST KANSAS

CITY           SKY/WX    TMP DP  RH WIND       PRES   REMARKS
DODGE CITY     CLEAR     44  34  67 N7        30.17R
GARDEN CITY    CLEAR     41  30  65 N9        30.19R
GREAT BEND     CLEAR     49  34  56 N9        30.15R
LIBERAL        CLEAR     42  37  82 N8        30.20R
$$

KSZ066>073-081>083-090>101-270500-
SOUTHEAST KANSAS

CITY           SKY/WX    TMP DP  RH WIND       PRES   REMARKS
CHANUTE        CLEAR     52  47  83 SW6       30.01S
COFFEYVILLE    CLEAR     56  49  77 S5        30.02R
HUTCHINSON     CLEAR     57  38  48 N12       30.09R
MEDICINE LODGE   N/A     52  42  69 N7        30.10R
NEWTON         CLEAR     54  41  61 N15       30.08R
PARSONS        CLEAR     49  48  97 CALM      30.02F
WICHITA INTL   CLEAR     54  46  74 NW9       30.06R
WICHITA JABRA  CLEAR     55  46  71 N8        30.05R
WICHITA MCCONL CLEAR     59  44  57 NW8       30.05R
WINFIELD       CLEAR     52  48  86 CALM      30.06R
$$

KSZ007>012-019>026-033>040-048>060-102>105-270500-
NORTHEAST KANSAS

CITY           SKY/WX    TMP DP  RH WIND       PRES   REMARKS
CONCORDIA      CLEAR     49  30  48 NW6       30.11R
EMPORIA        CLEAR     54  44  69 NW6       30.02R
LAWRENCE       CLEAR     57  44  62 N15       30.00R
MANHATTAN      CLEAR     58  33  39 N12G21    30.07R
OLATHE IND     CLEAR     57  42  57 W6        29.99R
OLATHE EXE     MOCLDY    55  41  59 W5        29.98R
SALINA         CLEAR     54  36  50 N9        30.11R
TOPEKA BILLARD CLEAR     58  41  53 NW9       30.02R
TOPEKA FORBES  CLEAR     59  42  53 N14       30.02R
$$



USA.gov is the U.S. government's official web portal to all federal, state and local government web resources and services.